Project,Study,Ord_Occ,Event_Num,Cast_ID,Date_Time_UTC,Date_Time_PST,Lat_Dec,Lon_Dec,Sta_ID,Line,Sta,Depth,Pressure,PrQ,Temp1,Temp1Q,Temp2,Temp2Q,TempAve,Salt1,Salt1Q,Salt1_Corr,Salt2,Salt2Q,Salt2_Corr,SaltAve_Corr,Ox1,Ox1Q,Ox1_CruiseCorr,Ox1_StaCorr,Ox2,Ox2Q,Ox2_CruiseCorr,Ox2_StaCorr,OxAve_StaCorr,Ox1uM,Ox1uM_CruiseCorr,Ox1uM_StaCorr,Ox2uM,Ox2uM_CruiseCorr,Ox2uM_StaCorr,OxAveuM_StaCorr,FluorV,FluorQ,EstChl_CruiseCorr,EstChl_StaCorr,ISUSV,ISUSQ,EstNO3_CruiseCorr,EstNO3_StaCorr,SigThetaTS1,SigThetaTS1Q,SigThetaTS2,SigThetaTS2Q,BAT,XMiss,TransQ,pH,pHQ,SPAR,SPARQ,PAR,PARQ,PoT1,PoT2,DynHt,SVA,OxSat1,OxSat2,BTL_Depth,BTL_Temp,SaltB,OxB,OxBuM,Chl-a,Phaeo,NO3,NO2,NH4,PO4,SIL
CalCOFI,2007SR,053,55,2007_053d,23-Jul-2020 11:20:15,23-Jul-2020 03:20:15,33.74472,-120.41032,083.3 055.0,083.3,055.0,2.000,2.014,,15.7856,,15.7858,,15.7857,33.6337,,33.6339,33.6340,,33.6356,33.6348,5.4865,,5.7151,5.7481,4.2436,,6.1895,4.7316,5.2399,239.110,249.1188,249.9864,184.945,419.2841,191.7643,220.8754,0.4310,,4.6831,4.9622,-99.0,,-99.0,,24.7452,,24.7454,,1.0828,76.2851,,8.144,,1.9043E+00,,5.2039E-01,,15.7853,15.7855,0.0027,,97.073,75.084,2,15.918,33.6296,5.833,254.59,4.679,0.209,0.24,0.043,0.00,0.28,2.38
CalCOFI,2007SR,053,55,2007_053d,23-Jul-2020 11:20:25,23-Jul-2020 03:20:25,33.74472,-120.41032,083.3 055.0,083.3,055.0,3.000,3.022,,15.7803,,15.7792,,15.7798,33.6338,,33.6340,33.6340,,33.6356,33.6348,5.4779,,5.7062,5.7390,4.2507,,6.2065,4.7471,5.2431,238.735,248.7274,249.5913,185.252,418.3669,192.3752,220.9833,0.4002,,4.3145,4.3330,-99.0,,-99.0,,24.7465,,24.7469,,1.0815,76.3090,,8.145,,1.9043E+00,,4.5321E-01,,15.7799,15.7787,0.0068,,96.911,75.199,,,,,,,,,,,,
CalCOFI,2007SR,053,55,2007_053d,23-Jul-2020 11:20:28,23-Jul-2020 03:20:28,33.74472,-120.41032,083.3 055.0,083.3,055.0,4.000,4.029,,15.7820,,15.7813,,15.7817,33.6338,,33.6340,33.6339,,33.6355,33.6348,5.4584,,5.6858,5.7184,4.2547,,6.2160,4.7558,5.2371,237.885,247.8401,248.6957,185.425,416.2879,192.7194,220.7076,0.4042,,4.3623,4.4124,-99.0,,-99.0,,24.7461,,24.7464,,1.0784,76.3690,,8.144,,1.9043E+00,,4.3602E-01,,15.7814,15.7806,0.0100,,96.569,75.272,,,,,,,,,,,,
CalCOFI,2007SR,053,55,2007_053d,23-Jul-2020 11:20:30,23-Jul-2020 03:20:30,33.74472,-120.41032,083.3 055.0,083.3,055.0,5.000,5.036,,15.7712,,15.7715,,15.7714,33.6337,,33.6339,33.6341,,33.6357,33.6348,5.4483,,5.6752,5.7077,4.2550,,6.2168,4.7565,5.2321,237.443,247.3786,248.2300,185.437,415.2069,192.7433,220.4867,0.3959,,4.2630,4.2485,-99.0,,-99.0,,24.7486,,24.7488,,1.0777,76.3831,,8.144,,1.9043E+00,,4.0977E-01,,15.7704,15.7707,0.0132,,96.369,75.263,,,,,,,,,,,,
CalCOFI,2007SR,053,55,2007_053d,23-Jul-2020 11:20:32,23-Jul-2020 03:20:32,33.74472,-120.41032,083.3 055.0,083.3,055.0,6.000,6.043,,15.7578,,15.7596,,15.7587,33.6339,,33.6341,33.6340,,33.6356,33.6349,5.4480,,5.6749,5.7074,4.2578,,6.2234,4.7626,5.2350,237.431,247.3661,248.2174,185.560,415.1775,192.9880,220.6027,0.3839,,4.1196,4.0170,-99.0,,-99.0,,24.7517,,24.7514,,1.0732,76.4687,,8.144,,1.9043E+00,,3.8630E-01,,15.7569,15.7587,0.0164,,96.339,75.295,,,,,,,,,,,,
CalCOFI,2007SR,053,55,2007_053d,23-Jul-2020 11:20:34,23-Jul-2020 03:20:34,33.74472,-120.41032,083.3 055.0,083.3,055.0,7.000,7.050,,15.7525,,15.7528,,15.7527,33.6343,,33.6345,33.6342,,33.6358,33.6352,5.4273,,5.6533,5.6855,4.2588,,6.2258,4.7648,5.2252,236.530,246.4256,247.2681,185.602,412.9738,193.0716,220.1699,0.3784,,4.0539,3.9129,-99.0,,-99.0,,24.7533,,24.7531,,1.0737,76.4578,,8.144,,1.9043E+00,,3.7713E-01,,15.7515,15.7517,0.0197,,95.964,75.302,,,,,,,,,,,,
CalCOFI,2007SR,053,55,2007_053d,23-Jul-2020 11:20:36,23-Jul-2020 03:20:36,33.74472,-120.41032,083.3 055.0,083.3,055.0,8.000,8.057,,15.7456,,15.7453,,15.7455,33.6340,,33.6342,33.6342,,33.6358,33.6350,5.3751,,5.5987,5.6303,4.2600,,6.2287,4.7674,5.1989,234.255,244.0507,244.8712,185.655,407.4095,193.1771,219.0242,0.3675,,3.9237,3.7107,-99.0,,-99.0,,24.7546,,24.7549,,1.0612,76.6973,,8.143,,1.9043E+00,,3.6999E-01,,15.7443,15.7441,0.0229,,95.028,75.313,,,,,,,,,,,,
CalCOFI,2007SR,053,55,2007_053d,23-Jul-2020 11:20:39,23-Jul-2020 03:20:39,33.74472,-120.41034,083.3 055.0,083.3,055.0,9.000,9.065,,15.6943,,15.7034,,15.6989,33.6342,,33.6344,33.6336,,33.6352,33.6348,5.3401,,5.5622,5.5933,4.2664,,6.2440,4.7813,5.1873,232.725,242.4535,243.2593,185.934,403.6673,193.7322,218.4958,0.3755,,4.0192,3.8586,-99.0,,-99.0,,24.7663,,24.7638,,1.0459,76.9922,,8.140,,1.9043E+00,,3.6493E-01,,15.6929,15.7020,0.0261,,94.313,75.364,,,,,,,,,,,,
CalCOFI,2007SR,053,55,2007_053d,23-Jul-2020 11:20:40,23-Jul-2020 03:20:40,33.74472,-120.41033,083.3 055.0,083.3,055.0,10.000,10.072,,15.6697,,15.6748,,15.6723,33.6351,,33.6353,33.6353,,33.6369,33.6361,5.3016,,5.5219,5.5526,4.2666,,6.2445,4.7818,5.1672,231.046,240.7008,241.4903,185.943,399.5607,193.7501,217.6202,0.3692,,3.9440,3.7419,-99.0,,-99.0,,24.7725,,24.7715,,1.0364,77.1742,,8.140,,1.9043E+00,,3.5492E-01,,15.6682,15.6732,0.0293,,93.589,75.326,10,15.658,33.6326,5.605,244.67,4.480,0.255,1.00,0.030,0.07,0.34,2.92
CalCOFI,2007SR,053,55,2007_053d,23-Jul-2020 11:20:42,23-Jul-2020 03:20:42,33.74472,-120.41032,083.3 055.0,083.3,055.0,11.000,11.079,,15.6352,,15.6377,,15.6365,33.6349,,33.6351,33.6355,,33.6371,33.6361,5.2730,,5.4921,5.5223,4.2685,,6.2490,4.7859,5.1541,229.797,239.3970,240.1744,186.021,396.5058,193.9053,217.0399,0.3585,,3.8162,3.5476,-99.0,,-99.0,,24.7801,,24.7800,,1.0275,77.3456,,8.137,,1.9043E+00,,3.5187E-01,,15.6335,15.6360,0.0324,,93.020,75.304,,,,,,,,,,,,
CalCOFI,2007SR,053,55,2007_053d,23-Jul-2020 11:20:44,23-Jul-2020 03:20:44,33.74472,-120.41032,083.3 055.0,083.3,055.0,12.000,12.086,,15.5945,,15.5958,,15.5952,33.6355,,33.6357,33.6359,,33.6375,33.6366,5.2139,,5.4303,5.4598,4.2707,,6.2542,4.7907,5.1253,227.221,236.7079,237.4604,186.115,390.2053,194.0924,215.7764,0.3513,,3.7303,3.4197,-99.0,,-99.0,,24.7897,,24.7897,,1.0113,77.6600,,8.134,,1.9043E+00,,3.3854E-01,,15.5926,15.5939,0.0356,,91.905,75.281,,,,,,,,,,,,
CalCOFI,2007SR,053,55,2007_053d,23-Jul-2020 11:20:46,23-Jul-2020 03:20:46,33.74472,-120.41032,083.3 055.0,083.3,055.0,13.000,13.094,,15.5353,,15.5408,,15.5381,33.6360,,33.6362,33.6360,,33.6376,33.6369,5.1893,,5.4046,5.4338,4.2698,,6.2521,4.7888,5.1113,226.144,235.5836,236.3257,186.072,387.5711,194.0068,215.1663,0.3413,,3.6110,3.2459,-99.0,,-99.0,,24.8033,,24.8020,,0.9987,77.9054,,8.130,,1.9043E+00,,3.3324E-01,,15.5333,15.5388,0.0388,,91.364,75.183,,,,,,,,,,,,
CalCOFI,2007SR,053,55,2007_053d,23-Jul-2020 11:20:48,23-Jul-2020 03:20:48,33.74472,-120.41034,083.3 055.0,083.3,055.0,14.000,14.101,,15.4859,,15.4921,,15.4890,33.6369,,33.6371,33.6367,,33.6383,33.6377,5.1395,,5.3526,5.3811,4.2706,,6.2540,4.7905,5.0858,223.973,233.3173,234.0384,186.106,382.2612,194.0745,214.0565,0.3297,,3.4728,3.0497,6.5997E-08,,0.0000,,24.8149,,24.8134,,0.9856,78.1611,,8.127,,1.9043E+00,,3.2902E-01,,15.4838,15.4899,0.0419,,90.400,75.125,,,,,,,,,,,,
CalCOFI,2007SR,053,55,2007_053d,23-Jul-2020 11:20:50,23-Jul-2020 03:20:50,33.74472,-120.41033,083.3 055.0,083.3,055.0,15.000,15.108,,15.4454,,15.4450,,15.4452,33.6365,,33.6367,33.6367,,33.6383,33.6375,5.0931,,5.3041,5.3320,4.2679,,6.2476,4.7846,5.0583,221.949,231.2045,231.9059,185.986,377.3108,193.8357,212.8708,0.3328,,3.5097,3.1015,1.8653E-09,,0.0000,,24.8236,,24.8239,,0.9743,78.3829,,8.124,,1.9043E+00,,3.1779E-01,,15.4431,15.4427,0.0451,,89.512,75.007,,,,,,,,,,,,
CalCOFI,2007SR,053,55,2007_053d,23-Jul-2020 11:20:52,23-Jul-2020 03:20:52,33.74473,-120.41032,083.3 055.0,083.3,055.0,16.000,16.115,,15.3560,,15.3577,,15.3569,33.6367,,33.6369,33.6368,,33.6384,33.6377,5.0503,,5.2594,5.2868,4.2696,,6.2516,4.7883,5.0376,220.077,229.2503,229.9337,186.059,372.7321,193.9809,211.9573,0.3178,,3.3310,2.8546,0.0001,,0.0000,,24.8436,,24.8433,,0.9574,78.7135,,8.119,,1.9043E+00,,3.1108E-01,,15.3535,15.3552,0.0482,,88.602,74.909,,,,,,,,,,,,
CalCOFI,2007SR,053,55,2007_053d,23-Jul-2020 11:20:55,23-Jul-2020 03:20:55,33.74474,-120.41032,083.3 055.0,083.3,055.0,17.000,17.122,,15.2769,,15.2814,,15.2792,33.6374,,33.6376,33.6377,,33.6393,33.6385,5.0288,,5.2369,5.2640,4.2660,,6.2430,4.7805,5.0223,219.139,228.2711,228.9454,185.899,370.4379,193.6626,211.3040,0.3108,,3.2476,2.7427,0.0001,,0.0000,,24.8615,,24.8608,,0.9450,78.9574,,8.114,,1.9043E+00,,3.0664E-01,,15.2744,15.2788,0.0513,,88.088,74.733,,,,,,,,,,,,
CalCOFI,2007SR,053,55,2007_053d,23-Jul-2020 11:20:57,23-Jul-2020 03:20:57,33.74474,-120.41032,083.3 055.0,083.3,055.0,18.000,18.130,,15.2032,,15.2085,,15.2059,33.6376,,33.6378,33.6376,,33.6392,33.6385,4.9874,,5.1936,5.2203,4.2608,,6.2306,4.7691,4.9947,217.333,226.3858,227.0426,185.669,366.0207,193.2049,210.1238,0.3000,,3.1191,2.5743,0.0001,,0.0000,,24.8779,,24.8768,,0.9351,79.1544,,8.110,,1.9043E+00,,2.9602E-01,,15.2005,15.2058,0.0544,,87.236,74.534,,,,,,,,,,,,
CalCOFI,2007SR,053,55,2007_053d,23-Jul-2020 11:20:58,23-Jul-2020 03:20:58,33.74474,-120.41032,083.3 055.0,083.3,055.0,19.000,19.137,,15.2297,,15.2256,,15.2277,33.6399,,33.6401,33.6418,,33.6434,33.6418,4.6793,,4.8717,4.8944,4.2753,,6.2652,4.8008,4.8476,203.905,212.3683,212.8952,186.302,333.1777,194.4644,203.6798,0.3170,,3.3215,2.8417,0.0001,,0.0000,,24.8740,,24.8763,,0.9392,79.0731,,8.110,,1.9043E+00,,2.9386E-01,,15.2268,15.2227,0.0575,,81.890,74.815,,,,,,,,,,,,
CalCOFI,2007SR,053,55,2007_053d,23-Jul-2020 11:21:00,23-Jul-2020 03:21:00,33.74474,-120.41032,083.3 055.0,083.3,055.0,20.000,20.144,,15.0357,,15.0773,,15.0565,33.6215,,33.6217,33.6195,,33.6211,33.6214,4.5270,,4.7126,4.7333,4.2901,,6.3006,4.8331,4.7832,197.261,205.4327,205.8953,186.942,316.9274,195.7379,200.8166,0.2844,,2.9335,2.3401,0.0001,,0.0000,,24.9018,,24.8914,,0.9003,79.8483,,8.106,,1.9043E+00,,2.8742E-01,,15.0327,15.0743,0.0606,,78.910,74.841,20,13.772,33.6338,4.614,201.40,1.671,0.121,6.12,0.078,0.23,0.73,7.05
CalCOFI,2007SR,053,55,2007_053d,23-Jul-2020 11:21:02,23-Jul-2020 03:21:02,33.74474,-120.41032,083.3 055.0,083.3,055.0,21.000,21.152,,14.2765,,14.3088,,14.2927,33.6247,,33.6249,33.6208,,33.6224,33.6237,4.5093,,4.6941,4.7146,4.3405,,6.4209,4.9431,4.8289,196.459,204.5955,205.0503,189.108,314.9658,200.0478,202.5491,0.2117,,2.0707,1.3895,0.0001,,0.0000,,25.0672,,25.0574,,0.8234,81.3953,,8.088,,1.9043E+00,,2.7812E-01,,14.2734,14.3057,0.0636,,77.416,74.565,,,,,,,,,,,,
CalCOFI,2007SR,053,55,2007_053d,23-Jul-2020 11:21:04,23-Jul-2020 03:21:04,33.74474,-120.41032,083.3 055.0,083.3,055.0,22.000,22.159,,13.9859,,13.9961,,13.9910,33.6209,,33.6211,33.6202,,33.6218,33.6215,4.4576,,4.6400,4.6599,4.3472,,6.4369,4.9578,4.8089,194.196,202.2331,202.6661,189.388,309.4309,200.6049,201.6355,0.1871,,1.7795,1.1204,0.0001,,0.0000,,25.1250,,25.1223,,0.7990,81.8931,,8.072,,1.9043E+00,,2.6988E-01,,13.9828,13.9929,0.0665,,76.078,74.209,,,,,,,,,,,,
CalCOFI,2007SR,053,55,2007_053d,23-Jul-2020 11:21:07,23-Jul-2020 03:21:07,33.74474,-120.41032,083.3 055.0,083.3,055.0,23.000,23.166,,13.8021,,13.7935,,13.7978,33.6189,,33.6191,33.6185,,33.6201,33.6196,4.4115,,4.5919,4.6112,4.3383,,6.4156,4.9383,4.7748,192.182,200.1307,200.5442,188.995,304.5049,199.8230,200.1836,0.1842,,1.7452,1.0904,0.0001,,0.0000,,25.1615,,25.1630,,0.7847,82.1860,,8.058,,1.9043E+00,,2.6429E-01,,13.7988,13.7902,0.0693,,75.010,73.753,,,,,,,,,,,,
CalCOFI,2007SR,053,55,2007_053d,23-Jul-2020 11:21:09,23-Jul-2020 03:21:09,33.74474,-120.41032,083.3 055.0,083.3,055.0,24.000,24.173,,13.6252,,13.6034,,13.6143,33.6194,,33.6196,33.6211,,33.6227,33.6212,4.3911,,4.5706,4.5896,4.3261,,6.3865,4.9117,4.7507,191.287,199.1964,199.6012,188.454,302.3159,198.7465,199.1739,0.1731,,1.6139,0.9790,0.0001,,0.0000,,25.1982,,25.2040,,0.7733,82.4216,,8.047,,1.9043E+00,,2.6268E-01,,13.6219,13.6000,0.0721,,74.395,73.261,,,,,,,,,,,,
CalCOFI,2007SR,053,55,2007_053d,23-Jul-2020 11:21:11,23-Jul-2020 03:21:11,33.74474,-120.41032,083.3 055.0,083.3,055.0,25.000,25.181,,13.5440,,13.5318,,13.5379,33.6213,,33.6215,33.6230,,33.6246,33.6231,4.3607,,4.5388,4.5574,4.3111,,6.3507,4.8789,4.7182,189.960,197.8111,198.2031,187.800,299.0702,197.4452,197.8242,0.1803,,1.6991,1.0507,0.0001,,0.0000,,25.2163,,25.2201,,0.7673,82.5443,,8.040,,1.9043E+00,,2.5718E-01,,13.5405,13.5283,0.0749,,73.758,72.902,,,,,,,,,,,,
CalCOFI,2007SR,053,55,2007_053d,23-Jul-2020 11:21:13,23-Jul-2020 03:21:13,33.74474,-120.41032,083.3 055.0,083.3,055.0,26.000,26.188,,13.4478,,13.4328,,13.4403,33.6206,,33.6208,33.6224,,33.6240,33.6224,4.3336,,4.5105,4.5288,4.2943,,6.3106,4.8423,4.6856,188.773,196.5720,196.9525,187.060,296.1670,195.9727,196.4626,0.1551,,1.4012,0.8100,0.0002,,0.0000,,25.2353,,25.2397,,0.7633,82.6284,,8.031,,1.9043E+00,,2.5394E-01,,13.4441,13.4292,0.0777,,73.154,72.469,,,,,,,,,,,,
CalCOFI,2007SR,053,55,2007_053d,23-Jul-2020 11:21:15,23-Jul-2020 03:21:15,33.74474,-120.41032,083.3 055.0,083.3,055.0,27.000,27.195,,13.3655,,13.3553,,13.3604,33.6226,,33.6228,33.6242,,33.6258,33.6243,4.2902,,4.4651,4.4829,4.2789,,6.2738,4.8086,4.6458,186.882,194.5980,194.9602,186.386,291.5419,194.6316,194.7959,0.1587,,1.4438,0.8427,0.0002,,0.0000,,25.2535,,25.2568,,0.7557,82.7851,,8.025,,1.9043E+00,,2.3811E-01,,13.3618,13.3516,0.0804,,72.302,72.096,,,,,,,,,,,,
CalCOFI,2007SR,053,55,2007_053d,23-Jul-2020 11:21:17,23-Jul-2020 03:21:17,33.74474,-120.41032,083.3 055.0,083.3,055.0,28.000,28.203,,13.2956,,13.2931,,13.2944,33.6238,,33.6240,33.6252,,33.6268,33.6254,4.2395,,4.4122,4.4292,4.2637,,6.2375,4.7755,4.6024,184.671,192.2900,192.6308,185.723,286.1341,193.3124,192.9716,0.1619,,1.4816,0.8722,0.0001,,0.0000,,25.2685,,25.2701,,0.7519,82.8623,,8.019,,1.9043E+00,,2.2511E-01,,13.2918,13.2893,0.0831,,71.346,71.749,,,,,,,,,,,,
CalCOFI,2007SR,053,55,2007_053d,23-Jul-2020 11:21:18,23-Jul-2020 03:21:18,33.74474,-120.41032,083.3 055.0,083.3,055.0,29.000,29.210,,13.1831,,13.1727,,13.1779,33.6225,,33.6227,33.6229,,33.6245,33.6236,4.2408,,4.4135,4.4306,4.2575,,6.2227,4.7619,4.5963,184.721,192.3422,192.6834,185.448,286.2564,192.7652,192.7243,0.1476,,1.3127,0.7437,0.0001,,0.0000,,25.2901,,25.2925,,0.7460,82.9850,,8.015,,1.9043E+00,,2.1021E-01,,13.1792,13.1687,0.0859,,71.201,71.466,,,,,,,,,,,,
CalCOFI,2007SR,053,55,2007_053d,23-Jul-2020 11:21:20,23-Jul-2020 03:21:20,33.74474,-120.41032,083.3 055.0,083.3,055.0,30.000,30.217,,13.1035,,13.1012,,13.1024,33.6237,,33.6239,33.6261,,33.6277,33.6258,4.2254,,4.3974,4.4143,4.2454,,6.1938,4.7355,4.5749,184.048,191.6396,191.9744,184.918,284.6103,191.7106,191.8425,0.1540,,1.3882,0.8001,0.0002,,0.0000,,25.3070,,25.3093,,0.7445,83.0162,,8.009,,1.9043E+00,,1.9734E-01,,13.0994,13.0971,0.0885,,70.827,71.160,30,12.946,33.6290,,189.08,1.049,0.199,8.30,0.075,0.13,0.89,8.71
CalCOFI,2007SR,053,55,2007_053d,23-Jul-2020 11:21:23,23-Jul-2020 03:21:23,33.74474,-120.41032,083.3 055.0,083.3,055.0,31.000,31.224,,13.0385,,13.0551,,13.0468,33.6224,,33.6226,33.6218,,33.6234,33.6230,4.0168,,4.1795,4.1937,4.2326,,6.1633,4.7076,4.4507,174.959,182.1516,182.3985,184.360,262.3799,190.6003,186.4994,0.1244,,1.0389,0.5544,0.0002,,0.0000,,25.3189,,25.3151,,0.7336,83.2444,,8.002,,1.9043E+00,,1.7510E-01,,13.0343,13.0508,0.0912,,67.240,70.876,,,,,,,,,,,,
CalCOFI,2007SR,053,55,2007_053d,23-Jul-2020 11:21:25,23-Jul-2020 03:21:25,33.74474,-120.41032,083.3 055.0,083.3,055.0,32.000,32.232,,12.7503,,12.7337,,12.7420,33.6236,,33.6238,33.6223,,33.6239,33.6239,3.7870,,3.9393,3.9507,4.2623,,6.2342,4.7724,4.3616,164.941,171.6938,171.8437,185.644,237.8773,193.1552,182.4995,0.1278,,1.0790,0.5807,0.0002,,0.0000,,25.3767,,25.3790,,0.7288,83.3440,,7.995,,1.9043E+00,,1.5724E-01,,12.7460,12.7294,0.0939,,63.018,70.902,,,,,,,,,,,,
CalCOFI,2007SR,053,55,2007_053d,23-Jul-2020 11:21:27,23-Jul-2020 03:21:27,33.74474,-120.41032,083.3 055.0,083.3,055.0,33.000,33.239,,12.5189,,12.4950,,12.5070,33.6260,,33.6262,33.6257,,33.6273,33.6268,3.5612,,3.7034,3.7118,4.2893,,6.2986,4.8313,4.2716,155.101,161.4218,161.4765,186.812,213.8101,195.4792,178.4779,0.1200,,0.9870,0.5212,0.0002,,0.0000,,25.4236,,25.4280,,0.7195,83.5376,,7.986,,1.9043E+00,,1.4744E-01,,12.5145,12.4906,0.0965,,58.979,71.000,,,,,,,,,,,,
CalCOFI,2007SR,053,55,2007_053d,23-Jul-2020 11:21:28,23-Jul-2020 03:21:28,33.74474,-120.41032,083.3 055.0,083.3,055.0,34.000,34.246,,12.0233,,11.9854,,12.0044,33.6290,,33.6292,33.6275,,33.6291,33.6292,3.4315,,3.5679,3.5747,4.3068,,6.3404,4.8695,4.2221,149.439,155.5113,155.5112,187.556,199.9616,196.9596,176.2354,0.1002,,0.7537,0.3821,0.0001,,0.0000,,25.5205,,25.5265,,0.7083,83.7707,,7.972,,1.9043E+00,,1.2857E-01,,12.0189,11.9810,0.0990,,56.246,70.535,,,,,,,,,,,,
CalCOFI,2007SR,053,55,2007_053d,23-Jul-2020 11:21:30,23-Jul-2020 03:21:30,33.74474,-120.41032,083.3 055.0,083.3,055.0,35.000,35.254,,11.3820,,11.3690,,11.3755,33.6634,,33.6636,33.6645,,33.6661,33.6649,3.4384,,3.5751,3.5820,4.3256,,6.3853,4.9106,4.2463,149.719,155.8036,155.8062,188.349,200.6465,198.5376,177.1719,0.0823,,0.5430,0.2711,0.0001,,0.0000,,25.6665,,25.6697,,0.6981,83.9848,,7.951,,1.9043E+00,,1.2069E-01,,11.3776,11.3646,0.1014,,55.613,69.944,,,,,,,,,,,,
CalCOFI,2007SR,053,55,2007_053d,23-Jul-2020 11:21:33,23-Jul-2020 03:21:33,33.74474,-120.41032,083.3 055.0,083.3,055.0,36.000,36.261,,11.2410,,11.2473,,11.2442,33.6827,,33.6829,33.6835,,33.6851,33.6840,3.4128,,3.5483,3.5549,4.2896,,6.2994,4.8320,4.1935,148.593,154.6281,154.6199,186.773,197.8924,195.4016,175.0108,0.0727,,0.4300,0.2174,0.0001,,0.0000,,25.7072,,25.7067,,0.6860,84.2409,,7.930,,1.9043E+00,,1.0697E-01,,11.2365,11.2428,0.1037,,55.039,69.190,,,,,,,,,,,,
CalCOFI,2007SR,053,55,2007_053d,23-Jul-2020 11:21:35,23-Jul-2020 03:21:35,33.74474,-120.41032,083.3 055.0,083.3,055.0,37.000,37.268,,11.1794,,11.1841,,11.1818,33.6899,,33.6901,33.6912,,33.6928,33.6915,3.3282,,3.4599,3.4654,4.2478,,6.1996,4.7407,4.1031,144.909,150.7824,150.7385,184.948,188.8819,191.7703,171.2544,0.0708,,0.4077,0.2073,0.0001,,0.0000,,25.7239,,25.7241,,0.6774,84.4215,,7.914,,1.9043E+00,,9.5313E-02,,11.1749,11.1796,0.1060,,53.607,68.427,,,,,,,,,,,,
CalCOFI,2007SR,053,55,2007_053d,23-Jul-2020 11:21:37,23-Jul-2020 03:21:37,33.74475,-120.41032,083.3 055.0,083.3,055.0,38.000,38.276,,11.0937,,11.0875,,11.0906,33.6980,,33.6982,33.7002,,33.7018,33.7000,3.2881,,3.4180,3.4230,4.2248,,6.1447,4.6905,4.0568,143.159,148.9556,148.8947,183.943,184.6016,189.7706,169.3327,0.0701,,0.3995,0.2036,-99.0,,-99.0,,25.7457,,25.7486,,0.6736,84.5005,,7.904,,1.9043E+00,,8.9168E-02,,11.0890,11.0829,0.1083,,52.867,67.921,,,,,,,,,,,,
CalCOFI,2007SR,053,55,2007_053d,23-Jul-2020 11:21:39,23-Jul-2020 03:21:39,33.74476,-120.41032,083.3 055.0,083.3,055.0,39.000,39.283,,11.0302,,11.0249,,11.0276,33.7063,,33.7065,33.7088,,33.7104,33.7085,3.2602,,3.3889,3.3935,4.2004,,6.0864,4.6373,4.0154,141.945,147.6883,147.6157,182.876,181.6324,187.6474,167.6316,0.0662,,0.3536,0.1834,1.1465E-07,,0.0000,,25.7635,,25.7665,,0.6716,84.5434,,7.896,,1.9043E+00,,8.8157E-02,,11.0255,11.0201,0.1105,,52.352,67.441,,,,,,,,,,,,
CalCOFI,2007SR,053,55,2007_053d,23-Jul-2020 11:21:41,23-Jul-2020 03:21:41,33.74476,-120.41032,083.3 055.0,083.3,055.0,40.000,40.290,,10.9527,,10.9526,,10.9527,33.7172,,33.7174,33.7195,,33.7211,33.7193,3.2449,,3.3729,3.3773,4.1655,,6.0031,4.5611,3.9692,141.272,146.9857,146.9067,181.356,179.9863,184.6230,165.7649,0.0633,,0.3195,0.1688,6.5628E-08,,0.0000,,25.7860,,25.7877,,0.6678,84.6235,,7.886,,1.9043E+00,,6.9618E-02,,10.9478,10.9477,0.1128,,52.022,66.783,40,10.895,33.7172,,145.11,0.237,0.108,17.19,0.042,0.00,1.43,16.29
CalCOFI,2007SR,053,55,2007_053d,23-Jul-2020 11:21:43,23-Jul-2020 03:21:43,33.74476,-120.41032,083.3 055.0,083.3,055.0,41.000,41.298,,10.9274,,10.9258,,10.9266,33.7221,,33.7223,33.7247,,33.7263,33.7243,3.2297,,3.3570,3.3612,4.1320,,5.9231,4.4879,3.9246,140.610,146.2947,146.2092,179.896,178.3671,181.7179,163.9636,0.0617,,0.3007,0.1609,-99.0,,-99.0,,25.7943,,25.7966,,0.6661,84.6590,,7.880,,1.9043E+00,,5.3223E-02,,10.9224,10.9209,0.1150,,51.752,66.211,,,,,,,,,,,,
CalCOFI,2007SR,053,55,2007_053d,23-Jul-2020 11:21:45,23-Jul-2020 03:21:45,33.74476,-120.41032,083.3 055.0,083.3,055.0,42.000,42.305,,10.9094,,10.9051,,10.9073,33.7257,,33.7259,33.7282,,33.7298,33.7279,3.2091,,3.3355,3.3394,4.1049,,5.8584,4.4287,3.8841,139.716,145.3614,145.2673,178.714,176.1805,179.3660,162.3167,0.0598,,0.2784,0.1516,-99.0,,-99.0,,25.8003,,25.8030,,0.6666,84.6501,,7.874,,1.9043E+00,,4.0243E-02,,10.9043,10.9000,0.1172,,51.405,65.748,,,,,,,,,,,,
CalCOFI,2007SR,053,55,2007_053d,23-Jul-2020 11:21:46,23-Jul-2020 03:21:46,33.74476,-120.41032,083.3 055.0,083.3,055.0,43.000,43.313,,10.8944,,10.8898,,10.8921,33.7282,,33.7284,33.7308,,33.7324,33.7304,3.1915,,3.3171,3.3208,4.0816,,5.8028,4.3779,3.8494,138.949,144.5608,144.4592,177.698,174.3046,177.3443,160.9018,0.0570,,0.2455,0.1383,-99.0,,-99.0,,25.8050,,25.8078,,0.6647,84.6890,,7.870,,1.9043E+00,,2.3989E-02,,10.8892,10.8846,0.1194,,51.107,65.354,,,,,,,,,,,,
CalCOFI,2007SR,053,55,2007_053d,23-Jul-2020 11:21:48,23-Jul-2020 03:21:48,33.74476,-120.41032,083.3 055.0,083.3,055.0,44.000,44.320,,10.8648,,10.8645,,10.8647,33.7319,,33.7321,33.7343,,33.7359,33.7340,3.1889,,3.3144,3.3181,4.0565,,5.7429,4.3231,3.8206,138.833,144.4397,144.3370,176.602,174.0208,175.1635,159.7503,0.0586,,0.2643,0.1459,-99.0,,-99.0,,25.8131,,25.8150,,0.6644,84.6956,,7.866,,1.9043E+00,,1.3873E-02,,10.8595,10.8592,0.1216,,51.034,64.918,,,,,,,,,,,,
CalCOFI,2007SR,053,55,2007_053d,23-Jul-2020 11:21:52,23-Jul-2020 03:21:52,33.74476,-120.41032,083.3 055.0,083.3,055.0,45.000,45.327,,10.8388,,10.8692,,10.8540,33.7365,,33.7367,33.7351,,33.7367,33.7367,3.1678,,3.2923,3.2958,4.0099,,5.6316,4.2213,3.7586,137.911,143.4772,143.3656,174.577,171.7658,171.1342,157.2499,0.0552,,0.2243,0.1299,-99.0,,-99.0,,25.8213,,25.8148,,0.6641,84.7032,,7.861,,1.9043E+00,,-7.205E-04,,10.8334,10.8638,0.1238,,50.669,64.181,,,,,,,,,,,,
CalCOFI,2007SR,053,55,2007_053d,23-Jul-2020 11:21:54,23-Jul-2020 03:21:54,33.74476,-120.41031,083.3 055.0,083.3,055.0,46.000,46.335,,10.8084,,10.8028,,10.8056,33.7416,,33.7418,33.7437,,33.7453,33.7436,3.1481,,3.2717,3.2749,3.9868,,5.5765,4.1709,3.7229,137.055,142.5836,142.4637,173.567,169.6721,169.1245,155.7941,0.0549,,0.2208,0.1286,-99.0,,-99.0,,25.8306,,25.8333,,0.6629,84.7286,,7.858,,1.9043E+00,,-3.057E-05,,10.8028,10.7973,0.1260,,50.323,63.723,,,,,,,,,,,,
CalCOFI,2007SR,053,55,2007_053d,23-Jul-2020 11:21:55,23-Jul-2020 03:21:55,33.74476,-120.41030,083.3 055.0,083.3,055.0,47.000,47.342,,10.8049,,10.8018,,10.8034,33.7418,,33.7420,33.7439,,33.7455,33.7438,3.1187,,3.2410,3.2438,3.9724,,5.5421,4.1395,3.6917,135.773,141.2453,141.1131,172.941,166.5365,167.8789,154.4960,0.0525,,0.1926,0.1176,-99.0,,-99.0,,25.8314,,25.8337,,0.6635,84.7153,,7.856,,1.9043E+00,,1.0000E-12,,10.7993,10.7962,0.1282,,49.849,63.492,,,,,,,,,,,,
CalCOFI,2007SR,053,55,2007_053d,23-Jul-2020 11:21:56,23-Jul-2020 03:21:56,33.74476,-120.41030,083.3 055.0,083.3,055.0,48.000,48.350,,10.7894,,10.7820,,10.7857,33.7427,,33.7429,33.7451,,33.7467,33.7448,3.0931,,3.2143,3.2168,3.9580,,5.5077,4.1080,3.6624,134.657,140.0803,139.9373,172.311,163.8069,166.6253,153.2813,0.0508,,0.1726,0.1101,-99.0,,-99.0,,25.8350,,25.8381,,0.6621,84.7455,,7.852,,1.9043E+00,,1.0000E-12,,10.7836,10.7762,0.1304,,49.423,63.235,,,,,,,,,,,,
CalCOFI,2007SR,053,55,2007_053d,23-Jul-2020 11:21:59,23-Jul-2020 03:21:59,33.74476,-120.41030,083.3 055.0,083.3,055.0,49.000,49.357,,10.6917,,10.6966,,10.6942,33.7562,,33.7564,33.7581,,33.7597,33.7581,3.0850,,3.2058,3.2082,3.9377,,5.4593,4.0637,3.6360,134.303,139.7108,139.5643,171.422,162.9411,164.8564,152.2104,0.0506,,0.1703,0.1092,-99.0,,-99.0,,25.8627,,25.8633,,0.6610,84.7695,,7.848,,1.9043E+00,,1.0000E-12,,10.6859,10.6907,0.1326,,49.196,62.800,,,,,,,,,,,,
CalCOFI,2007SR,053,55,2007_053d,23-Jul-2020 11:22:01,23-Jul-2020 03:22:01,33.74476,-120.41032,083.3 055.0,083.3,055.0,50.000,50.364,,10.6615,,10.6580,,10.6598,33.7616,,33.7618,33.7637,,33.7653,33.7636,3.0759,,3.1963,3.1986,3.9083,,5.3891,3.9995,3.5991,133.905,139.2953,139.1450,170.141,161.9677,162.3075,150.7263,0.0491,,0.1526,0.1026,-99.0,,-99.0,,25.8722,,25.8745,,0.6611,84.7672,,7.845,,1.9043E+00,,1.0000E-12,,10.6555,10.6521,0.1347,,49.020,62.282,50,10.550,33.7726,3.111,135.77,0.130,0.087,19.57,0.030,0.00,1.58,18.92